Reno, NV

1:55 AM PDT on September 22, 2019 (GMT -0700)
Reno-Tahoe International

Weather History for KRNO - July, 2019

Change the Weather History Date:

Monday, July 15, 2019

  Actual Average Record
Temperature  
Mean Temperature 77 °F 75 °F  
Max Temperature 93 °F 93 °F 103 °F (1970)
Min Temperature 60 °F 58 °F 38 °F (1966)
Degree Days  
Heating Degree Days 0 0  
Month to date heating degree days 0 0  
Since 1 June heating degree days 15 56  
Since 1 July heating degree days 0 0  
Cooling Degree Days 12 11  
Month to date cooling degree days 147 138  
Year to date cooling degree days 363 311  
Since 1 June cooling degree days 349 274  
Growing Degree Days 25 (Base 50)    
Moisture  
Dew Point 34 °F    
Average Humidity 25    
Maximum Humidity 39    
Minimum Humidity 11    
Precipitation  
Precipitation 0.00 in 0.01 in 0.22 in (1911)
Month to date precipitation 0.00 0.08  
Year to date precipitation 8.51 4.36  
Snow  
Snow 0.00 in 0.00 in 0.00 in ()
Month to date snowfall 0.0 0.0  
Since 1 June snowfall 0.0 T  
Since 1 July snowfall 0.0 0.0  
Snow Depth 0.00 in    
Sea Level Pressure  
Sea Level Pressure 29.94 in    
Wind  
Wind Speed 8 mph (West)    
Max Wind Speed 24 mph    
Max Gust Speed 33 mph    
Visibility 10 miles    
Events      
T = Trace of Precipitation, MM = Missing Value Source: NWS Daily Summary

Daily Weather History Graph

Daily Weather History Graph

Search for Another Location

Airport or City:

Astronomy

Jul. 15, 2019 Rise Set
Actual Time 5:44 AM PDT 8:25 PM PDT
Civil Twilight 5:12 AM PDT 8:56 PM PDT
Nautical Twilight 4:33 AM PDT 9:36 PM PDT
Astronomical Twilight 3:48 AM PDT 10:20 PM PDT
Moon 7:47 PM PDT (7/15) 4:35 AM PDT (7/15)
Length of Visible Light 15h 44m
Length of Day
14h 41m
Waxing Gibbous, 99% of the Moon is Illuminated
Jul 15
Waxing Gibbous
Jul 16
Full
Jul 24
Last Quarter
Jul 31
New
Aug 7
First Quarter

Hourly Weather History & Observations

Time (PDT) Temp. Dew Point Humidity Pressure Visibility Wind Dir Wind Speed Gust Speed Precip Events Conditions
12:55 AM 70.0 °F 33.1 °F 26% 29.98 in 10.0 mi Calm Calm - N/A   Clear
1:55 AM 68.0 °F 33.1 °F 27% 29.98 in 10.0 mi NE 6.9 mph - N/A   Clear
2:55 AM 66.0 °F 33.1 °F 29% 29.99 in 10.0 mi Calm Calm - N/A   Clear
3:55 AM 61.0 °F 33.1 °F 35% 30.00 in 10.0 mi South 3.5 mph - N/A   Clear
4:55 AM 62.1 °F 33.1 °F 34% 30.00 in 10.0 mi Calm Calm - N/A   Clear
5:55 AM 60.1 °F 30.9 °F 33% 30.03 in 10.0 mi SSW 3.5 mph - N/A   Clear
6:55 AM 61.0 °F 35.1 °F 38% 30.03 in 10.0 mi South 3.5 mph - N/A   Clear
7:55 AM 64.9 °F 33.1 °F 31% 30.03 in 10.0 mi Calm Calm - N/A   Clear
8:55 AM 71.1 °F 32.0 °F 24% 30.01 in 10.0 mi Calm Calm - N/A   Clear
9:55 AM 75.9 °F 33.1 °F 21% 29.99 in 10.0 mi Calm Calm - N/A   Clear
10:55 AM 82.0 °F 30.9 °F 16% 29.97 in 10.0 mi WSW 4.6 mph - N/A   Clear
11:55 AM 84.9 °F 30.9 °F 14% 29.95 in 10.0 mi Variable 3.5 mph - N/A   Clear
12:55 PM 87.1 °F 32.0 °F 14% 29.93 in 10.0 mi Variable 4.6 mph - N/A   Partly Cloudy
1:55 PM 90.0 °F 30.9 °F 12% 29.90 in 10.0 mi Variable 6.9 mph 21.9 mph N/A   Partly Cloudy
2:55 PM 91.9 °F 30.9 °F 11% 29.88 in 10.0 mi West 21.9 mph 31.1 mph N/A   Partly Cloudy
3:55 PM 91.0 °F 30.9 °F 12% 29.88 in 10.0 mi WNW 24.2 mph 27.6 mph N/A   Partly Cloudy
4:55 PM 90.0 °F 34.0 °F 14% 29.87 in 10.0 mi West 19.6 mph 26.5 mph N/A   Partly Cloudy
5:55 PM 87.1 °F 35.1 °F 16% 29.87 in 10.0 mi West 21.9 mph 29.9 mph N/A   Partly Cloudy
6:55 PM 84.9 °F 37.0 °F 18% 29.87 in 10.0 mi West 17.3 mph - N/A   Partly Cloudy
7:55 PM 82.0 °F 37.9 °F 21% 29.87 in 10.0 mi WNW 16.1 mph 28.8 mph N/A   Partly Cloudy
8:55 PM 78.1 °F 39.0 °F 25% 29.90 in 10.0 mi WNW 18.4 mph 23.0 mph N/A   Partly Cloudy
9:55 PM 75.9 °F 39.0 °F 26% 29.91 in 10.0 mi NW 10.4 mph - N/A   Partly Cloudy
10:55 PM 75.0 °F 39.9 °F 28% 29.90 in 10.0 mi NW 9.2 mph - N/A   Partly Cloudy
11:55 PM 73.0 °F 42.1 °F 33% 29.90 in 10.0 mi NW 6.9 mph - N/A   Partly Cloudy